Location: Dzierzno
(50.6159°N, 19.2852°E)
Time: 01:55:37
(UTC+00:00)

Meteor 2-1 Rocket - Pass Details

Date: 18 November 2025
Orbit: 823 x 911 km, 81.3° (Epoch: 04 December)

Event Time Altitude Azimuth Distance (km) Brightness Sun altitude
Rises 17:44:06 0° 195° (SSW) 3,508 7.6 -26.8°
Reaches altitude 10° 17:46:33 10° 197° (SSW) 2,579 6.9 -27.2°
Maximum altitude 17:52:27 76° 283° (WNW) 944 4.4 -28.2°
Enters shadow 17:57:34 15° 9° (N) 2,283 6.4 -29.0°
